Regional Weather Roundup
Issued by NWS

Home | Current Version | Previous Version | Graphics & Text | Print | Product List | Glossary On
Versions: 1 2 3 4 5 6 7 8 9 10 11 12 13 14 15 16 17 18 19 20 21 22 23 24 25 26 27 28 29 30 31 32 33 34 35 36 37 38 39 40 41 42 43 44 45 46 47 48 49 50
000
ASUS43 KOAX 231710
RWRNE

WEATHER ROUNDUP FOR NEBRASKA
NATIONAL WEATHER SERVICE OMAHA NE
1200 PM CDT SAT AUG 23 2014

NOTES: SATELLITE DATA IS BEING USED TO AUGMENT CLOUD COVER ABOVE
       12000 FEET.
       "FAIR" INDICATES FEW OR NO CLOUDS BELOW 12,000 FEET WITH NO
       SIGNIFICANT WEATHER AND/OR OBSTRUCTIONS TO VISIBILITY.

  * THESE STATIONS DO NOT REPORT WEATHER SUCH AS RAIN...SNOW OR FOG.

NEZ001>004-019>022-054>056-231800-
NEBRASKA PANHANDLE

CITY           SKY/WX    TMP DP  RH WIND       PRES   REMARKS
SCOTTSBLUFF    MOSUNNY   75  59  57 CALM      29.88F
ALLIANCE       CLOUDY    69  61  75 CALM      29.88F
CHADRON        CLOUDY    69  61  75 E6        29.86F
KIMBALL        SUNNY     69  58  67 W5        29.92S
SIDNEY         CLOUDY    73  59  61 N3        29.93R
$$

NEZ057>060-069>072-079>082-231800-
SOUTHWEST NEBRASKA

CITY           SKY/WX    TMP DP  RH WIND       PRES   REMARKS
NORTH PLATTE   CLOUDY    69  66  90 S3        29.87S
IMPERIAL       CLOUDY    71  64  78 W5        29.88F
LEXINGTON      CLOUDY    76  70  81 SE12      29.85S
MCCOOK         PTSUNNY   75  67  76 S6        29.86S
OGALLALA       PTSUNNY   73  65  77 SW5       29.87F
$$

NEZ005>010-023>029-035>040-094-231800-
NORTH CENTRAL NEBRASKA

CITY           SKY/WX    TMP DP  RH WIND       PRES   REMARKS
VALENTINE      CLOUDY    75  65  70 SE18      29.84F
AINSWORTH      CLOUDY    71  65  80 SE14      29.86F
BROKEN BOW     CLOUDY    72  68  87 SE10      29.85F
O`NEILL        CLOUDY    72  68  89 SE15      29.87F
ORD            CLOUDY    72  67  84 SE10      29.84F
THEDFORD       CLOUDY    72  67  84 SE12      29.87S
$$

NEZ041-046>049-061>064-073>077-083>087-231800-
SOUTH CENTRAL NEBRASKA

CITY           SKY/WX    TMP DP  RH WIND       PRES   REMARKS
GRAND ISLAND   MOSUNNY   80  70  71 S15       29.85F
AURORA         SUNNY     81  73  76 S10       29.85S
HASTINGS       SUNNY     81  67  62 SE13      29.85F
HEBRON         SUNNY     84  65  52 S9G16     29.84F
HOLDREGE       MOSUNNY   80  70  71 S14G20    29.83F
KEARNEY *      MOSUNNY   79  72  78 SE15      29.85F
YORK           SUNNY     81 N/A N/A S13       29.85S
$$

NEZ011>018-030>034-042>045-231800-
NORTHEAST NEBRASKA

CITY           SKY/WX    TMP DP  RH WIND       PRES   REMARKS
NORFOLK        PTSUNNY   77  68  73 SE18      29.87F
ALBION         CLOUDY    74  67  79 SE13      29.86F
BLAIR          PTSUNNY   81  71  73 SE9       29.88F
FREMONT        PTSUNNY   81  71  72 SE10      29.87F
TEKAMAH        CLOUDY    78  72  81 SE6       29.88F
WAYNE          CLOUDY    76  70  82 SE15      29.89F
$$

NEZ050>053-065>068-078-088>093-231800-
SOUTHEAST NEBRASKA

CITY           SKY/WX    TMP DP  RH WIND       PRES   REMARKS
LINCOLN        MOSUNNY   85  71  63 SE15G23   29.86F HX  90
OMAHA EPPLEY   PTSUNNY   81  71  71 S13       29.88R
BEATRICE       SUNNY     86  70  59 S9        29.85F HX  90
FALLS CITY     SUNNY     87  72  60 S13       29.87S HX  93
NEBRASKA CITY  MOSUNNY   83  73  72 S13       29.87F
PLATTSMOUTH    PTSUNNY   83  74  73 S8        29.88F
$$

NEZ044-045-051>053-067-231800-
OMAHA AREA

CITY           SKY/WX    TMP DP  RH WIND       PRES   REMARKS
OMAHA EPPLEY   PTSUNNY   81  71  71 S13       29.88R
BLAIR          PTSUNNY   81  71  73 SE9       29.88F
FREMONT        PTSUNNY   81  71  72 SE10      29.87F
MILLARD        PTSUNNY   82  73  75 SE7       29.87F
OFFUTT AFB     PTSUNNY   82  77  84 SE8       29.87S HX  90
PLATTSMOUTH    PTSUNNY   83  74  73 S8        29.88F
WAHOO          PTSUNNY   80  71  75 SE10      29.87F
$$


USA.gov is the U.S. government's official web portal to all federal, state and local government web resources and services.